Temperature
14 14 15 15 15 15 14 13 13 14 13 14 14 14 15 15 16 16 15 16 16 16 15 15 15 15 14 14 14 13 13 13 13 13 13 12 12 12 12 12 12 12 12 12
14 14 14 14 14 14 14 14 13 13 14 14 15 15 15 15 15 15 15 15 15 15 15 15 15 14 14 14 13 13 13 13 13 12 12 12 12 12 12 12 12 12 12 12
12 13 14 14 14 14 14 14 14 14 14 13 13 14 14 15 15 15 15 15 15 15 15 15 14 14 14 14 13 13 13 12 12 12 12 12 12 12 11 11 11 11 11 11
11 13 14 14 14 14 14 14 13 13 13 13 13 14 15 15 15 15 15 15 15 15 14 14 14 14 14 13 13 12 12 12 12 12 12 11 11 11 11 11 11 11 11 11
10 12 12 13 14 14 14 14 13 13 13 13 13 14 14 15 15 15 15 15 15 14 14 14 14 13 13 13 12 12 12 12 12 11 11 11 11 11 11 10 10 10 10 10
9 12 12 13 14 14 14 13 13 13 12 13 13 11 12 14 14 15 14 14 14 14 14 13 13 13 13 12 12 12 12 11 11 11 11 10 10 10 10 10 10 10 10 10
9 11 11 12 13 14 13 13 14 13 13 13 12 13 14 14 14 14 14 14 14 13 13 13 13 13 12 12 12 12 11 11 11 10 10 10 10 10 10 10 9 9 9 9
9 10 11 12 12 12 12 14 14 14 14 13 13 13 14 14 14 13 13 13 13 13 13 12 12 12 12 12 12 11 11 10 10 10 10 10 9 9 9 9 9 9 9 9
10 11 12 12 13 14 14 13 14 14 14 13 13 13 13 13 13 13 13 13 12 12 12 12 12 11 11 11 11 11 10 10 10 10 9 9 9 9 9 9 8 8 8 8
9 9 11 12 13 14 14 14 14 13 13 13 13 13 13 13 12 12 12 12 12 12 11 11 11 11 11 11 10 10 10 9 9 9 9 9 9 9 8 8 8 8 8 8
8 9 11 12 13 13 13 13 13 13 13 13 13 13 12 12 12 12 12 11 11 11 11 11 10 10 10 10 10 9 9 9 9 9 9 8 8 8 8 8 8 8 7 7
9 11 10 12 13 13 13 13 12 12 12 12 12 12 12 12 11 11 11 11 10 10 10 10 10 10 10 9 9 9 9 9 8 8 8 8 8 8 8 7 7 7 7 7
12 12 12 12 12 12 12 12 12 12 12 12 12 12 12 11 11 11 10 10 10 10 10 10 9 9 9 9 9 8 8 8 8 8 8 8 8 8 7 7 7 7 7 7
11 11 11 11 11 11 11 12 12 11 11 11 11 11 11 11 11 10 10 10 10 10 9 9 9 9 9 8 8 8 8 8 8 8 8 7 7 7 7 7 7 7 7 6
10 10 10 11 11 11 11 11 11 11 11 11 11 11 11 10 10 10 10 9 9 9 9 9 9 8 8 8 8 8 7 7 7 7 7 7 7 6 6 6 6 6 6 6
10 10 10 10 10 10 10 10 10 10 10 10 10 10 10 10 10 9 9 9 9 9 9 8 8 8 8 8 7 7 7 7 7 7 6 6 6 6 6 6 6 5 6 6
9 9 9 9 9 10 10 10 10 10 10 10 10 10 9 9 9 9 9 8 8 8 8 8 8 8 8 7 7 7 7 7 6 6 6 6 6 5 5 5 5 5 5 5
9 9 9 9 9 9 9 9 9 9 10 10 9 9 9 9 9 8 8 8 8 8 8 8 7 7 7 7 7 7 6 6 6 6 6 5 5 5 5 5 5 5 5 4
8 8 8 9 9 9 9 9 9 9 9 9 9 9 9 9 8 8 8 8 7 7 7 7 7 7 7 7 6 6 6 6 6 5 5 5 5 5 4 4 4 4 4 4
8 8 8 8 8 8 8 8 8 9 9 9 9 8 8 8 8 8 7 7 7 7 7 7 7 6 6 6 6 6 6 5 5 5 5 5 4 4 4 4 4 4 4 4
7 7 8 8 8 8 8 8 8 8 8 8 8 8 8 8 7 7 7 7 7 7 6 6 6 6 6 6 6 5 5 5 5 5 4 4 4 4 4 4 4 3 3 3
7 7 7 7 7 7 7 7 7 7 7 7 7 7 7 7 7 7 6 6 6 6 6 6 6 6 5 5 5 5 5 5 5 4 4 4 4 4 4 3 3 3 3 3
6 6 6 6 6 6 7 7 7 7 7 7 6 6 6 6 6 6 6 6 6 6 5 5 5 5 5 5 5 5 4 4 4 4 4 3 3 3 3 3 3 3 3 3
6 6 6 6 6 6 6 6 6 6 6 6 6 6 6 6 6 6 5 5 5 5 5 5 4 4 4 4 4 4 4 4 3 3 3 3 3 3 3 2 2 2 2 2
5 5 5 5 5 6 6 5 5 5 5 5 5 5 5 5 5 5 5 5 4 4 4 4 4 4 4 4 3 3 3 3 3 3 3 3 3 2 2 2 2 2 2 2
5 5 5 5 5 5 5 5 4 4 4 4 4 4 4 4 4 4 4 4 4 4 3 3 3 3 3 3 3 3 3 3 3 2 2 2 2 2 2 2 2 1 1 1
4 4 4 4 4 4 4 4 4 4 4 4 3 3 3 4 4 4 3 3 3 3 3 3 3 2 2 2 2 2 2 2 2 2 2 2 2 2 1 1 1 1 1 1
Wind_Speed
5 4 3 5 6 5 7 8 8 8 8 9 7 6 5 3 3 4 4 4 5 5 5 4 4 3 3 3 3 4 4 3 3 3 2 2 2 1 1 1 1 2 1 1
3 2 3 5 7 6 6 6 7 6 9 8 4 3 3 4 4 5 5 6 5 5 5 6 6 5 5 4 4 4 4 4 3 2 2 2 2 2 2 1 1 0 1 1
3 5 4 6 6 5 4 4 6 7 8 3 2 4 5 4 5 6 6 5 5 5 6 7 7 6 6 5 4 4 4 4 3 3 3 3 3 2 2 2 1 1 1 1
1 2 5 6 2 3 3 4 4 4 4 3 4 4 3 3 5 5 4 4 4 4 5 5 5 5 4 4 5 5 4 4 3 3 3 2 2 2 2 1 1 1 1 1
3 3 7 6 2 2 3 4 3 3 2 1 1 2 3 2 2 4 4 4 4 4 4 3 3 4 4 4 4 4 4 4 4 4 4 3 3 3 2 2 1 1 2 2
3 3 5 5 3 1 2 4 3 2 3 2 2 0 4 3 1 2 1 2 2 2 2 2 2 4 4 4 4 4 5 5 4 4 4 4 4 3 2 2 2 1 1 2
4 5 7 6 3 2 2 5 3 3 3 3 4 5 4 2 2 2 2 2 2 2 2 3 3 4 4 4 4 5 4 3 3 3 3 3 2 2 2 2 2 1 1 2
4 4 7 3 2 4 5 3 2 2 2 3 3 3 2 2 2 1 1 1 2 2 2 2 3 4 4 4 4 3 3 3 3 3 3 2 3 2 2 2 2 2 1 1
7 7 4 3 4 4 2 2 3 3 3 3 2 3 3 2 2 1 1 2 2 2 2 1 2 4 5 4 3 3 3 3 2 2 2 2 3 3 2 2 2 2 2 2
4 7 5 5 4 3 3 3 4 4 3 3 3 3 3 2 2 1 1 2 2 3 2 2 2 3 4 3 4 4 3 3 2 2 1 1 2 3 3 3 3 3 2 3
5 7 6 5 4 4 3 3 3 3 3 4 4 4 4 3 2 2 2 1 2 3 3 4 3 3 3 3 4 4 4 3 2 2 2 1 1 2 3 4 4 4 4 4
7 7 5 7 6 4 3 4 4 3 3 3 3 4 4 3 3 3 2 2 2 2 3 3 2 2 2 3 4 5 4 3 3 2 2 2 1 1 2 3 3 4 4 3
8 6 6 7 5 4 4 5 4 4 4 4 4 4 3 3 3 3 3 3 3 4 4 3 3 2 2 3 4 5 5 4 3 2 2 2 2 2 1 2 1 2 3 3
6 3 4 5 5 5 5 5 3 3 3 3 3 3 3 2 2 3 4 4 3 3 3 3 3 3 3 3 4 4 4 4 3 3 2 2 2 2 2 2 1 2 2 3
5 5 6 5 4 4 3 2 2 3 2 2 2 2 3 4 4 5 4 3 2 2 3 3 3 3 3 4 5 4 4 3 3 2 2 2 2 2 2 2 2 2 2 2
5 4 3 3 4 4 3 3 4 4 3 3 3 3 4 4 4 3 3 3 3 4 4 4 4 4 4 4 4 4 4 5 3 2 2 2 2 2 2 2 2 2 3 3
2 3 3 4 5 6 5 5 5 6 4 4 4 4 3 2 2 2 3 3 3 4 4 5 5 4 4 4 4 4 3 4 4 2 2 2 2 3 3 3 3 3 4 4
4 5 5 5 5 6 6 5 5 5 5 5 4 3 3 4 5 4 3 2 1 2 3 4 4 3 3 4 4 3 3 3 3 3 3 3 3 3 3 3 4 4 3 3
4 4 5 5 5 5 5 5 5 5 4 3 3 4 5 5 4 4 3 2 3 3 4 3 4 3 3 4 4 3 3 3 3 3 3 3 3 2 3 3 3 4 4 3
4 4 5 5 5 4 5 5 4 4 3 3 3 3 4 4 3 3 3 3 4 4 4 3 3 3 3 4 4 3 3 4 4 3 2 2 3 3 3 3 3 3 3 3
5 5 5 5 5 4 4 4 3 3 3 3 4 4 4 4 3 3 3 3 4 3 3 4 2 3 3 3 4 3 3 3 3 3 3 3 3 3 3 3 3 2 2 2
4 4 5 5 4 4 4 3 2 3 3 3 3 3 3 3 3 3 4 4 4 4 2 2 2 4 4 4 2 3 3 3 3 3 3 3 3 3 3 3 3 3 3 3
4 4 4 4 4 4 4 3 2 2 2 2 3 3 3 3 3 3 3 3 2 4 2 3 4 5 4 2 2 2 3 3 3 3 3 3 3 3 3 3 3 3 3 3
4 4 4 3 3 3 4 4 3 3 2 2 2 2 2 2 2 2 2 3 3 3 2 4 5 4 3 2 2 2 2 2 2 2 2 2 2 2 2 3 3 3 3 3
4 3 3 2 2 3 3 3 3 3 3 2 3 3 2 2 2 2 2 2 3 3 2 3 4 4 2 2 2 2 2 3 3 3 3 3 3 3 3 3 3 3 3 3
3 3 3 3 3 3 2 2 2 2 2 2 3 3 3 2 1 1 1 2 2 2 1 1 2 3 2 2 2 2 2 3 3 3 3 3 3 3 3 3 4 4 4 4
2 2 2 2 2 2 2 1 2 2 2 2 3 3 3 2 1 1 1 1 1 1 1 1 1 2 2 2 2 2 2 2 3 3 3 3 3 3 4 4 4 4 4 4
Wind_Direction
244 253 251 254 255 221 202 202 206 233 231 247 243 237 238 230 209 188 195 197 196 197 199 198 194 195 197 207 202 183 173 181 206 211 198 195 193 195 190 174 197 220 199 200
302 308 286 266 263 243 226 216 218 239 256 254 248 229 226 220 198 200 208 209 208 204 200 203 203 203 202 207 205 183 176 193 205 197 192 197 198 184 168 180 209 220 222 198
266 302 334 280 249 216 227 218 191 220 241 258 262 235 227 219 206 211 215 210 206 207 210 211 208 201 201 203 189 180 185 191 192 189 192 204 197 181 187 199 175 177 248 220
214 356 249 248 256 198 217 248 223 233 250 236 238 250 247 218 203 213 211 209 213 212 215 213 203 200 196 185 179 183 189 192 193 190 195 197 182 190 196 181 181 206 240 229
147 221 274 293 274 189 205 269 246 229 253 272 307 22 334 287 200 205 206 208 211 207 204 195 189 185 167 173 178 182 195 201 199 192 188 186 192 198 190 173 189 216 231 225
148 193 242 255 287 289 128 278 266 208 223 224 116 81 272 278 241 236 221 195 190 178 153 171 188 161 156 176 182 201 208 207 199 187 183 192 204 204 192 178 193 195 240 242
180 221 260 264 293 83 160 255 281 224 213 183 185 216 247 269 263 231 210 191 170 161 177 205 181 159 168 182 205 215 204 192 183 183 187 189 189 187 178 175 173 193 231 262
166 206 254 282 120 177 227 280 289 259 223 195 217 255 278 279 261 247 201 174 168 171 201 210 173 166 180 205 216 197 172 171 180 185 189 174 161 168 165 167 182 209 225 273
195 220 252 253 227 251 233 247 261 248 236 209 232 264 273 265 253 243 201 183 177 176 198 229 196 177 189 217 193 167 156 175 191 187 179 171 171 175 173 181 194 217 220 241
250 267 269 272 272 271 243 245 256 245 238 217 232 249 260 260 253 240 222 199 180 167 188 228 227 207 204 192 170 157 167 184 187 180 184 177 181 184 187 197 205 214 222 236
257 275 301 292 265 262 266 280 292 278 244 223 213 228 233 237 238 234 231 223 187 192 211 227 221 212 197 177 162 163 174 189 196 195 194 199 212 218 212 218 210 213 221 220
241 246 237 265 271 272 257 262 262 262 273 263 224 225 226 224 225 223 223 209 202 213 219 232 219 217 204 178 165 164 177 194 200 199 199 197 209 285 266 233 239 232 223 218
248 259 251 265 279 277 262 260 259 247 242 256 257 228 213 218 214 214 216 211 215 219 221 215 201 207 207 186 170 170 181 194 198 196 195 203 209 216 268 298 274 232 229 231
254 259 270 267 270 276 273 268 265 264 254 240 241 233 211 215 219 221 230 229 222 212 215 208 195 209 211 187 174 177 184 195 193 195 199 207 216 224 218 221 263 289 274 253
273 260 250 268 281 285 283 280 288 288 286 280 249 224 212 215 226 237 239 224 206 205 212 199 197 218 208 184 177 179 183 192 193 191 200 206 209 213 216 221 231 255 283 283
285 293 280 280 277 279 276 258 254 259 255 248 256 251 237 228 230 235 232 209 200 215 222 213 217 219 201 183 179 185 194 201 196 186 191 198 203 210 226 233 239 245 251 254
277 295 295 293 282 279 268 255 246 246 244 243 244 243 232 220 224 241 250 247 232 232 229 217 221 216 196 186 183 189 193 199 201 199 201 209 214 220 227 231 233 242 252 244
240 250 254 258 266 271 270 265 257 251 244 244 242 226 212 209 218 229 234 243 259 277 264 239 220 200 193 191 187 188 190 196 194 199 210 217 226 230 232 234 239 248 258 251
278 273 276 274 268 261 258 258 256 253 249 236 228 229 229 224 219 218 208 203 215 240 257 245 225 196 194 202 192 181 187 192 196 207 213 217 226 231 236 237 242 242 240 241
296 296 295 293 290 279 275 273 269 270 261 225 225 235 238 236 224 213 204 223 235 236 235 233 213 198 200 201 197 181 188 194 197 205 214 219 226 238 243 246 245 244 236 231
302 305 306 301 298 294 282 276 268 269 269 241 226 233 238 238 224 206 205 245 263 240 223 224 210 205 202 202 199 183 187 195 200 207 216 223 230 239 243 244 239 242 235 233
297 299 302 306 307 309 307 292 276 270 274 267 253 239 230 231 229 231 235 233 235 229 226 220 216 216 208 203 182 184 194 198 202 209 218 221 224 232 240 243 242 243 236 231
293 291 296 298 295 299 314 319 306 287 277 270 260 248 239 235 221 218 257 256 220 227 230 224 226 221 213 188 175 185 194 201 207 214 222 227 229 230 235 243 248 249 244 243
291 292 300 309 322 332 325 320 321 314 304 294 279 258 237 238 272 263 247 238 232 239 238 228 225 222 208 166 175 191 201 209 215 220 225 232 236 236 239 244 250 254 247 242
288 294 303 317 319 305 299 315 331 333 332 322 315 308 284 238 243 262 253 234 231 241 232 228 226 226 203 184 202 212 215 222 224 219 220 229 234 237 241 244 247 253 253 246
277 278 278 275 273 277 289 303 304 304 304 306 309 309 307 296 255 244 245 244 238 235 221 214 218 225 207 208 222 229 231 242 253 250 237 237 239 241 245 247 248 250 252 251
290 287 292 304 303 294 290 284 275 280 275 266 282 294 294 289 272 247 230 226 237 243 237 232 228 223 219 224 231 236 237 239 241 244 242 242 244 246 245 244 248 250 249 249
Height
1505 1502 1502 1502 1501 1501 1504 1506 1511 1506 1504 1496 1492 1491 1490 1490 1491 1491 1493 1494 1495 1496 1498 1499 1501 1502 1504 1505 1506 1507 1507 1508 1508 1509 1510 1510 1511 1511 1512 1512 1513 1513 1514 1514
1505 1502 1502 1501 1498 1498 1498 1499 1501 1500 1498 1489 1488 1489 1488 1488 1488 1489 1490 1491 1493 1494 1495 1496 1498 1499 1500 1501 1503 1503 1504 1505 1506 1506 1507 1507 1508 1508 1509 1509 1510 1510 1510 1511
1511 1506 1502 1503 1495 1494 1494 1492 1494 1496 1492 1487 1487 1486 1486 1486 1486 1487 1487 1489 1490 1491 1492 1493 1494 1495 1496 1498 1499 1500 1501 1502 1503 1503 1503 1504 1505 1505 1505 1506 1506 1507 1507 1507
1513 1508 1509 1497 1488 1488 1489 1489 1488 1487 1486 1484 1484 1484 1483 1484 1484 1485 1486 1487 1488 1489 1489 1490 1491 1492 1493 1494 1495 1496 1497 1498 1499 1500 1500 1501 1501 1502 1502 1503 1503 1503 1503 1504
1515 1512 1506 1494 1487 1487 1489 1488 1485 1485 1484 1483 1483 1483 1483 1483 1483 1484 1484 1485 1486 1486 1487 1488 1488 1489 1490 1491 1492 1493 1494 1494 1495 1496 1497 1497 1498 1498 1499 1499 1499 1500 1500 1500
1514 1510 1507 1494 1485 1483 1486 1489 1483 1482 1482 1482 1482 1487 1484 1482 1482 1482 1483 1483 1484 1484 1485 1485 1486 1486 1487 1488 1488 1489 1490 1491 1492 1493 1493 1494 1494 1495 1495 1496 1496 1496 1497 1497
1511 1509 1501 1488 1484 1484 1494 1490 1482 1480 1480 1480 1481 1482 1481 1480 1480 1480 1480 1481 1481 1482 1482 1483 1483 1484 1484 1485 1485 1486 1487 1488 1489 1489 1490 1491 1491 1492 1492 1492 1492 1493 1493 1493
1510 1509 1501 1484 1484 1486 1485 1480 1480 1479 1479 1479 1479 1478 1478 1478 1477 1477 1477 1477 1478 1478 1479 1479 1480 1481 1481 1482 1483 1483 1484 1485 1486 1486 1487 1487 1488 1488 1489 1489 1489 1489 1489 1489
1497 1493 1484 1482 1481 1480 1480 1479 1478 1477 1477 1477 1477 1476 1476 1476 1475 1475 1475 1475 1475 1476 1475 1476 1477 1477 1478 1479 1480 1480 1481 1482 1482 1483 1483 1484 1484 1485 1485 1485 1486 1485 1486 1485
1491 1484 1481 1479 1478 1478 1478 1477 1476 1476 1475 1475 1474 1474 1474 1473 1473 1473 1472 1472 1472 1472 1472 1473 1473 1474 1475 1475 1476 1477 1477 1478 1479 1480 1480 1481 1481 1481 1482 1482 1482 1482 1482 1482
1488 1482 1479 1476 1477 1476 1476 1475 1473 1473 1473 1472 1472 1471 1471 1470 1470 1470 1469 1469 1469 1469 1469 1469 1470 1471 1472 1472 1472 1473 1474 1475 1476 1476 1477 1477 1478 1478 1478 1478 1479 1479 1479 1479
1483 1478 1478 1475 1474 1474 1473 1472 1471 1470 1469 1469 1469 1469 1468 1468 1467 1467 1466 1466 1466 1466 1466 1466 1467 1467 1468 1469 1469 1469 1470 1471 1472 1473 1473 1474 1474 1474 1474 1475 1475 1475 1476 1476
1475 1474 1473 1472 1471 1471 1470 1469 1468 1467 1467 1466 1466 1466 1465 1465 1464 1464 1464 1463 1463 1463 1463 1463 1463 1464 1465 1465 1466 1466 1467 1468 1469 1469 1470 1470 1470 1470 1470 1471 1471 1471 1472 1472
1472 1472 1470 1469 1468 1468 1467 1466 1466 1465 1464 1464 1463 1463 1462 1462 1461 1461 1461 1460 1460 1460 1460 1460 1460 1461 1462 1462 1463 1463 1464 1465 1466 1466 1466 1467 1467 1467 1467 1466 1466 1466 1467 1468
1468 1468 1467 1466 1465 1464 1464 1463 1462 1461 1461 1460 1460 1460 1459 1459 1458 1458 1458 1458 1458 1457 1457 1457 1457 1458 1459 1459 1460 1460 1461 1462 1462 1463 1463 1463 1463 1464 1463 1463 1463 1463 1463 1463
1464 1464 1463 1462 1462 1461 1461 1460 1459 1458 1458 1457 1457 1457 1457 1456 1456 1456 1455 1455 1455 1454 1454 1454 1454 1455 1456 1456 1457 1457 1458 1459 1459 1459 1459 1460 1460 1460 1459 1459 1459 1459 1459 1459
1461 1460 1459 1459 1458 1458 1457 1457 1456 1456 1455 1454 1454 1454 1454 1453 1453 1452 1452 1453 1452 1452 1452 1451 1451 1452 1452 1453 1453 1454 1454 1455 1455 1456 1456 1456 1456 1456 1456 1455 1455 1454 1454 1454
1459 1458 1458 1457 1456 1455 1454 1454 1453 1453 1452 1451 1451 1451 1450 1450 1449 1449 1449 1449 1449 1449 1449 1448 1448 1449 1449 1449 1450 1450 1451 1451 1451 1452 1452 1452 1452 1452 1451 1451 1450 1450 1449 1450
1456 1455 1454 1453 1453 1452 1451 1451 1450 1449 1449 1448 1448 1448 1447 1447 1446 1446 1446 1446 1446 1445 1445 1446 1446 1446 1446 1446 1446 1446 1447 1447 1447 1448 1448 1448 1448 1447 1447 1446 1445 1445 1445 1445
1453 1452 1451 1450 1449 1449 1448 1447 1447 1446 1445 1445 1444 1444 1444 1443 1443 1443 1443 1443 1443 1443 1442 1442 1443 1443 1443 1443 1443 1443 1443 1443 1443 1444 1444 1444 1444 1443 1442 1441 1441 1440 1440 1440
1451 1450 1449 1448 1446 1445 1444 1444 1443 1442 1442 1441 1441 1440 1440 1440 1440 1439 1439 1439 1440 1440 1440 1439 1439 1439 1439 1439 1439 1439 1439 1440 1440 1440 1440 1440 1439 1439 1438 1437 1437 1436 1436 1436
1449 1448 1446 1445 1444 1442 1441 1440 1440 1439 1438 1438 1437 1437 1436 1436 1436 1436 1436 1436 1436 1436 1436 1436 1436 1436 1436 1436 1436 1436 1436 1436 1436 1436 1436 1436 1435 1435 1434 1433 1433 1433 1432 1432
1447 1445 1444 1443 1441 1440 1439 1438 1437 1436 1435 1434 1434 1433 1433 1433 1433 1432 1432 1432 1432 1432 1433 1433 1433 1433 1432 1432 1432 1432 1432 1432 1432 1432 1432 1432 1431 1431 1430 1429 1429 1429 1428 1428
1444 1443 1442 1440 1439 1438 1436 1435 1434 1434 1433 1432 1431 1431 1430 1429 1429 1429 1429 1429 1429 1429 1429 1429 1429 1429 1429 1428 1428 1428 1428 1428 1428 1428 1428 1427 1427 1426 1426 1425 1425 1424 1424 1424
1441 1440 1439 1438 1436 1435 1434 1433 1432 1431 1430 1429 1428 1428 1427 1427 1426 1425 1425 1425 1425 1425 1425 1425 1425 1425 1425 1424 1424 1424 1424 1424 1424 1424 1424 1423 1423 1422 1422 1421 1421 1420 1420 1419
1438 1437 1436 1435 1434 1433 1431 1430 1429 1428 1427 1426 1425 1425 1424 1423 1423 1422 1422 1422 1422 1421 1421 1421 1421 1421 1421 1421 1421 1420 1420 1420 1420 1420 1419 1419 1419 1418 1418 1417 1417 1416 1416 1415
1435 1434 1433 1432 1431 1430 1428 1427 1426 1425 1424 1423 1422 1421 1421 1420 1420 1419 1419 1418 1418 1418 1418 1417 1417 1417 1417 1416 1416 1416 1416 1416 1415 1415 1415 1414 1414 1414 1413 1413 1412 1412 1412 1411